Change the Weather History Date:

Friday, November 22, 2013

  Actual Average Record
Temperature  
Mean Temperature 58 °F -  
Max Temperature 68 °F 58 °F 77 °F (1979)
Min Temperature 48 °F 34 °F 19 °F (2000)
Degree Days  
Heating Degree Days 7    
Growing Degree Days 8 (Base 50)    
Moisture  
Dew Point 47 °F    
Average Humidity 72    
Maximum Humidity 90    
Minimum Humidity 61    
Precipitation  
Precipitation 0.01 in - - ()
Sea Level Pressure  
Sea Level Pressure 30.26 in    
Wind  
Wind Speed 3 mph (SW)    
Max Wind Speed 13 mph    
Max Gust Speed 17 mph    
Visibility 10 miles    
Events Rain    
Averages and records for this station are not official NWS values.
T = Trace of Precipitation, MM = Missing Value Source: NWS Daily Summary

Daily Weather History Graph

Daily Weather History Graph

Search for Another Location

Airport or City:

Trip Planner

Search our weather history database for the weather conditions in past years. The results will help you decide how hot, cold, wet, or windy it might be!

Date:

Astronomy

Nov. 22, 2013 Rise Set
Actual Time 7:01 AM EST 5:06 PM EST
Civil Twilight 6:34 AM EST 5:33 PM EST
Nautical Twilight 6:02 AM EST 6:05 PM EST
Astronomical Twilight 5:32 AM EST 6:35 PM EST
Moon 9:34 PM EST (11/22) 10:46 AM EST (11/22)
Length of Visible Light 10h 59m
Length of Day
10h 04m
Waning Gibbous, 78% of the Moon is Illuminated
Nov 22
Waning Gibbous
Nov 25
Last Quarter
Dec 2
New
Dec 9
First Quarter
Dec 17
Full

Hourly Weather History & Observations

Time (EST) Temp. Dew Point Humidity Pressure Visibility Wind Dir Wind Speed Gust Speed Precip Events Conditions
12:14 AM 50.0 °F 42.1 °F 74% 30.40 in 10.0 mi Calm Calm - N/A   Overcast
12:29 AM 50.0 °F 41.0 °F 71% 30.39 in 10.0 mi Calm Calm - N/A   Overcast
12:54 AM 48.9 °F 41.0 °F 74% 30.38 in 10.0 mi Calm Calm - N/A   Overcast
1:25 AM 51.1 °F 41.0 °F 68% 30.38 in 10.0 mi Calm Calm - N/A   Overcast
1:34 AM 51.1 °F 41.0 °F 68% 30.38 in 10.0 mi Calm Calm - N/A   Overcast
1:54 AM 51.1 °F 39.9 °F 66% 30.38 in 10.0 mi Calm Calm - N/A   Overcast
2:31 AM 50.0 °F 39.9 °F 68% 30.37 in 10.0 mi NNE 3.5 mph - N/A   Overcast
2:51 AM 50.0 °F 39.2 °F 66% 30.37 in 10.0 mi Calm Calm - N/A   Overcast
2:54 AM 51.1 °F 41.0 °F 68% 30.37 in 10.0 mi Calm Calm - N/A   Overcast
3:18 AM 50.0 °F 39.9 °F 68% 30.37 in 10.0 mi North 4.6 mph - N/A   Overcast
3:35 AM 50.0 °F 41.0 °F 71% 30.37 in 10.0 mi Calm Calm - N/A   Overcast
3:54 AM 50.0 °F 41.0 °F 71% 30.36 in 10.0 mi NNW 3.5 mph - N/A   Overcast
4:54 AM 48.9 °F 41.0 °F 74% 30.33 in 10.0 mi Calm Calm - N/A   Overcast
5:14 AM 48.9 °F 41.0 °F 74% 30.34 in 10.0 mi Calm Calm - N/A   Overcast
5:54 AM 48.9 °F 41.0 °F 74% 30.32 in 10.0 mi SSE 3.5 mph - N/A   Mostly Cloudy
6:54 AM 48.0 °F 41.0 °F 77% 30.32 in 10.0 mi SW 3.5 mph - N/A   Clear
7:27 AM 48.0 °F 41.0 °F 77% 30.32 in 10.0 mi West 3.5 mph - N/A   Scattered Clouds
7:36 AM 48.0 °F 42.1 °F 80% 30.32 in 10.0 mi Calm Calm - N/A   Mostly Cloudy
7:54 AM 50.0 °F 42.1 °F 74% 30.32 in 10.0 mi Calm Calm - N/A   Overcast
8:54 AM 51.1 °F 42.1 °F 71% 30.33 in 10.0 mi Calm Calm - N/A   Overcast
9:54 AM 54.0 °F 42.1 °F 64% 30.33 in 10.0 mi West 5.8 mph - N/A   Overcast
10:19 AM 55.0 °F 43.0 °F 64% 30.32 in 10.0 mi SW 3.5 mph - N/A   Overcast
10:54 AM 55.9 °F 45.0 °F 67% 30.31 in 10.0 mi SW 6.9 mph - N/A   Overcast
11:54 AM 59.0 °F 48.9 °F 69% 30.27 in 10.0 mi South 5.8 mph - N/A   Overcast
12:54 PM 63.0 °F 53.1 °F 70% 30.22 in 10.0 mi SSW 11.5 mph 17.3 mph N/A   Mostly Cloudy
1:04 PM 64.0 °F 54.0 °F 70% 30.22 in 10.0 mi SW 10.4 mph - N/A   Scattered Clouds
1:54 PM 66.9 °F 54.0 °F 63% 30.20 in 10.0 mi SSW 11.5 mph - N/A   Partly Cloudy
2:54 PM 68.0 °F 54.0 °F 61% 30.17 in 10.0 mi South 12.7 mph - N/A   Partly Cloudy
3:54 PM 68.0 °F 54.0 °F 61% 30.16 in 10.0 mi SW 6.9 mph - N/A   Mostly Cloudy
4:54 PM 66.9 °F 54.0 °F 63% 30.14 in 10.0 mi SSW 5.8 mph - N/A   Overcast
5:54 PM 66.0 °F 54.0 °F 65% 30.14 in 10.0 mi SSW 4.6 mph - N/A   Overcast
6:54 PM 64.9 °F 54.0 °F 68% 30.12 in 10.0 mi SW 4.6 mph - N/A   Overcast
7:54 PM 63.0 °F 55.0 °F 75% 30.11 in 10.0 mi SSW 5.8 mph - 0.00 in Rain Light Rain
8:54 PM 62.1 °F 55.9 °F 80% 30.10 in 10.0 mi SSW 4.6 mph - 0.00 in   Overcast
9:21 PM 62.1 °F 55.9 °F 80% 30.10 in 10.0 mi SW 5.8 mph - N/A   Overcast
9:28 PM 63.0 °F 55.9 °F 78% 30.10 in 10.0 mi SW 6.9 mph - N/A   Overcast
9:44 PM 63.0 °F 55.9 °F 78% 30.10 in 10.0 mi SW 6.9 mph - N/A   Overcast
9:54 PM 63.0 °F 55.9 °F 78% 30.10 in 10.0 mi WSW 9.2 mph - N/A   Overcast
10:54 PM 61.0 °F 57.9 °F 90% 30.09 in 10.0 mi WSW 5.8 mph - 0.01 in   Overcast
11:29 PM 61.0 °F 57.0 °F 87% 30.10 in 7.0 mi SW 5.8 mph - 0.00 in Rain Light Rain
11:54 PM 60.1 °F 57.0 °F 90% 30.09 in 10.0 mi WSW 5.8 mph - 0.00 in   Overcast